Météo par heure à Jurkowice

Ce jour, 20 Juin, Dimanche

Heure Température Précipitation Vent Pression Humidité
00:00 +22°C° 0 mm 3 m/s 759 mmHg 77%
01:00 +22°C° 0 mm 3 m/s 759 mmHg 80%
02:00 +22°C° 0 mm 3 m/s 758 mmHg 81%
03:00 +22°C° 0 mm 3 m/s 758 mmHg 83%
04:00 +22°C° 0 mm 3 m/s 758 mmHg 84%
05:00 +24°C° 0 mm 3 m/s 758 mmHg 81%
06:00 +25°C° 0 mm 4 m/s 758 mmHg 78%
07:00 +26°C° 0 mm 4 m/s 759 mmHg 74%
08:00 +27°C° 0 mm 4 m/s 759 mmHg 69%
09:00 +28°C° 0 mm 5 m/s 758 mmHg 64%
10:00 +29°C° 0 mm 5 m/s 758 mmHg 58%
11:00 +29°C° 0 mm 5 m/s 758 mmHg 55%
12:00 +30°C° 0 mm 5 m/s 758 mmHg 52%
13:00 +30°C° 0 mm 5 m/s 758 mmHg 48%
14:00 +30°C° 0 mm 5 m/s 757 mmHg 51%
15:00 +30°C° 0 mm 4 m/s 757 mmHg 53%
16:00 +30°C° 0 mm 4 m/s 757 mmHg 55%
17:00 +29°C° 0 mm 4 m/s 757 mmHg 61%
18:00 +28°C° 0 mm 3 m/s 756 mmHg 67%
19:00 +26°C° 0 mm 3 m/s 756 mmHg 74%
20:00 +25°C° 0 mm 3 m/s 756 mmHg 75%
21:00 +24°C° 0 mm 3 m/s 756 mmHg 77%
22:00 +22°C° 0 mm 3 m/s 756 mmHg 79%
23:00 +22°C° 0 mm 3 m/s 756 mmHg 82%

Demain, 21 Juin, Lundi

Heure Température Précipitation Vent Pression Humidité
00:00 +21°C° 0 mm 3 m/s 756 mmHg 85%
01:00 +21°C° 0 mm 3 m/s 756 mmHg 88%
02:00 +21°C° 0 mm 3 m/s 756 mmHg 90%
03:00 +20°C° 0 mm 3 m/s 756 mmHg 92%
04:00 +20°C° 0 mm 3 m/s 756 mmHg 94%
05:00 +22°C° 0 mm 3 m/s 756 mmHg 87%
06:00 +23°C° 0 mm 4 m/s 756 mmHg 81%
07:00 +26°C° 0 mm 4 m/s 756 mmHg 75%
08:00 +27°C° 0 mm 5 m/s 756 mmHg 69%
09:00 +28°C° 0 mm 5 m/s 755 mmHg 63%
10:00 +29°C° 0 mm 5 m/s 755 mmHg 57%
11:00 +30°C° 0 mm 6 m/s 755 mmHg 55%
12:00 +30°C° 0 mm 6 m/s 755 mmHg 53%
13:00 +32°C° 0 mm 6 m/s 755 mmHg 50%
14:00 +30°C° 0 mm 5 m/s 754 mmHg 52%
15:00 +30°C° 0 mm 5 m/s 754 mmHg 55%
16:00 +30°C° 0 mm 4 m/s 754 mmHg 57%
17:00 +29°C° 0 mm 4 m/s 754 mmHg 61%
18:00 +28°C° 0 mm 3 m/s 754 mmHg 66%
19:00 +26°C° 0 mm 3 m/s 754 mmHg 71%
20:00 +26°C° 0 mm 3 m/s 754 mmHg 72%
21:00 +25°C° 0 mm 3 m/s 754 mmHg 74%
22:00 +24°C° 0 mm 3 m/s 754 mmHg 75%
23:00 +24°C° 0 mm 3 m/s 754 mmHg 77%

Après-demain, 22 Juin, Mardi

Heure Température Précipitation Vent Pression Humidité
00:00 +24°C° 0 mm 2 m/s 754 mmHg 79%
01:00 +23°C° 0 mm 2 m/s 754 mmHg 81%
02:00 +23°C° 0.1 mm 2 m/s 754 mmHg 85%
03:00 +21°C° 0.1 mm 2 m/s 754 mmHg 88%
04:00 +21°C° 0.1 mm 2 m/s 754 mmHg 91%
05:00 +21°C° 0.2 mm 2 m/s 755 mmHg 91%
06:00 +21°C° 0.2 mm 2 m/s 755 mmHg 90%
07:00 +21°C° 0.2 mm 2 m/s 755 mmHg 90%
08:00 +21°C° 0.3 mm 2 m/s 756 mmHg 88%
09:00 +21°C° 0.3 mm 2 m/s 756 mmHg 86%
10:00 +23°C° 0.3 mm 2 m/s 757 mmHg 85%
11:00 +24°C° 0.1 mm 2 m/s 757 mmHg 80%
12:00 +24°C° 0.1 mm 3 m/s 757 mmHg 75%
13:00 +25°C° 0.1 mm 3 m/s 757 mmHg 71%
14:00 +25°C° 0 mm 3 m/s 757 mmHg 70%
15:00 +25°C° 0 mm 4 m/s 757 mmHg 70%
16:00 +23°C° 0 mm 4 m/s 758 mmHg 70%
17:00 +22°C° 0 mm 4 m/s 758 mmHg 73%
18:00 +20°C° 0 mm 4 m/s 758 mmHg 76%
19:00 +19°C° 0 mm 3 m/s 759 mmHg 79%
20:00 +18°C° 0 mm 3 m/s 759 mmHg 81%
21:00 +16°C° 0 mm 3 m/s 759 mmHg 83%
22:00 +15°C° 0 mm 2 m/s 759 mmHg 85%
23:00 +15°C° 0 mm 2 m/s 759 mmHg 84%

23 Juin, Mercredi

Heure Température Précipitation Vent Pression Humidité
00:00 +14°C° 0 mm 2 m/s 759 mmHg 84%
01:00 +14°C° 0 mm 2 m/s 759 mmHg 84%
02:00 +14°C° 0 mm 2 m/s 759 mmHg 82%
03:00 +14°C° 0 mm 2 m/s 759 mmHg 81%
04:00 +14°C° 0 mm 2 m/s 759 mmHg 80%
05:00 +16°C° 0 mm 2 m/s 759 mmHg 73%
06:00 +18°C° 0 mm 2 m/s 759 mmHg 66%
07:00 +19°C° 0 mm 2 m/s 759 mmHg 60%
08:00 +21°C° 0 mm 2 m/s 759 mmHg 58%
09:00 +23°C° 0 mm 2 m/s 759 mmHg 56%
10:00 +25°C° 0 mm 3 m/s 759 mmHg 54%
11:00 +26°C° 0 mm 3 m/s 759 mmHg 55%
12:00 +27°C° 0 mm 3 m/s 759 mmHg 56%
13:00 +28°C° 0 mm 3 m/s 759 mmHg 57%
14:00 +27°C° 0.4 mm 3 m/s 759 mmHg 61%
15:00 +26°C° 0.4 mm 4 m/s 759 mmHg 66%
16:00 +25°C° 0.4 mm 4 m/s 759 mmHg 70%
17:00 +24°C° 2.1 mm 3 m/s 759 mmHg 76%
18:00 +21°C° 2.1 mm 3 m/s 759 mmHg 82%
19:00 +20°C° 2.1 mm 2 m/s 759 mmHg 88%
20:00 +19°C° 0.7 mm 2 m/s 759 mmHg 90%
21:00 +19°C° 0.7 mm 1 m/s 759 mmHg 91%
22:00 +18°C° 0.7 mm 1 m/s 759 mmHg 92%
23:00 +18°C° 0 mm 1 m/s 759 mmHg 93%

24 Juin, Jeudi

Heure Température Précipitation Vent Pression Humidité
00:00 +17°C° 0 mm 2 m/s 759 mmHg 94%
01:00 +17°C° 0 mm 3 m/s 759 mmHg 95%
02:00 +16°C° 0 mm 3 m/s 760 mmHg 96%
03:00 +16°C° 0 mm 3 m/s 760 mmHg 97%
04:00 +16°C° 0 mm 3 m/s 760 mmHg 97%
05:00 +16°C° 0 mm 3 m/s 760 mmHg 94%
06:00 +17°C° 0 mm 3 m/s 760 mmHg 92%
07:00 +18°C° 0 mm 3 m/s 760 mmHg 89%
08:00 +19°C° 0 mm 3 m/s 761 mmHg 84%
09:00 +20°C° 0 mm 3 m/s 761 mmHg 79%
10:00 +21°C° 0 mm 4 m/s 761 mmHg 75%
11:00 +22°C° 0 mm 3 m/s 761 mmHg 69%
12:00 +24°C° 0 mm 3 m/s 761 mmHg 63%
13:00 +26°C° 0 mm 2 m/s 761 mmHg 58%
14:00 +26°C° 0 mm 2 m/s 761 mmHg 57%
15:00 +26°C° 0 mm 2 m/s 761 mmHg 55%
16:00 +27°C° 0 mm 1 m/s 760 mmHg 54%
17:00 +25°C° 0 mm 2 m/s 760 mmHg 63%
18:00 +23°C° 0 mm 2 m/s 760 mmHg 71%
19:00 +21°C° 0 mm 3 m/s 760 mmHg 79%
20:00 +19°C° 0 mm 3 m/s 760 mmHg 84%
21:00 +18°C° 0 mm 4 m/s 760 mmHg 88%
22:00 +15°C° 0 mm 4 m/s 760 mmHg 92%
23:00 +16°C° 0 mm 3 m/s 761 mmHg 93%

25 Juin, Vendredi

Heure Température Précipitation Vent Pression Humidité
00:00 +16°C° 0 mm 2 m/s 761 mmHg 94%
01:00 +15°C° 0 mm 1 m/s 761 mmHg 95%
02:00 +16°C° 0.4 mm 2 m/s 760 mmHg 95%
03:00 +16°C° 0.4 mm 2 m/s 760 mmHg 95%
04:00 +16°C° 0.4 mm 3 m/s 759 mmHg 95%
05:00 +16°C° 0.2 mm 3 m/s 759 mmHg 95%
06:00 +16°C° 0.2 mm 3 m/s 759 mmHg 94%
07:00 +17°C° 0.2 mm 4 m/s 760 mmHg 93%
08:00 +15°C° 0.3 mm 4 m/s 760 mmHg 93%
09:00 +15°C° 0.3 mm 4 m/s 760 mmHg 92%
10:00 +15°C° 0.3 mm 5 m/s 760 mmHg 92%
11:00 +14°C° 0.3 mm 5 m/s 760 mmHg 92%
12:00 +14°C° 0.3 mm 5 m/s 761 mmHg 93%
13:00 +14°C° 0.3 mm 5 m/s 761 mmHg 94%
14:00 +15°C° 0.2 mm 4 m/s 761 mmHg 89%
15:00 +17°C° 0.2 mm 4 m/s 761 mmHg 85%
16:00 +17°C° 0.2 mm 4 m/s 761 mmHg 80%
17:00 +17°C° 0 mm 4 m/s 761 mmHg 80%
18:00 +17°C° 0 mm 3 m/s 761 mmHg 80%
19:00 +17°C° 0 mm 3 m/s 761 mmHg 80%
20:00 +16°C° 0 mm 2 m/s 761 mmHg 84%
21:00 +15°C° 0 mm 2 m/s 761 mmHg 88%
22:00 +13°C° 0 mm 2 m/s 762 mmHg 91%
23:00 +13°C° 0 mm 2 m/s 762 mmHg 92%
Voir plus

Nous avons besoin de votre consentement

Meteoprog et ses fournisseurs de services peuvent stocker et accéder à des données personnelles telles que des cookies, des identifiants d'appareils ou d'autres technologies similaires sur votre appareil et traiter ces données pour personnaliser le contenu et les publicités, ainsi que pour fournir des fonctionnalités de médias sociaux et analyser le trafic.

  • Stocker et/ou accéder à des informations sur votre appareil

    Des cookies, des identifiants d'appareils ou d'autres informations peuvent être stockés ou accessibles sur votre appareil aux fins indiquées ci-dessus.

  • Annonces et contenus personnalisés, mesure des annonces et des contenus, connaissance de l'audience et développement de produits

    Les annonces et le contenu peuvent être personnalisés en fonction d'un profil. D'autres données peuvent être ajoutées pour mieux personnaliser les annonces et le contenu. Les performances des publicités et du contenu peuvent être mesurées. Il est possible d'obtenir des informations sur le public qui a vu les publicités et le contenu. Ces données peuvent être utilisées pour développer ou améliorer l'expérience de l'utilisateur, les systèmes et les logiciels.

En cliquant sur "J'accepte", vous autorisez l'utilisation de cookies, des identifiants d'appareils, des balises web ou d'autres technologies similaires. Vos paramètres peuvent être modifiés dans le navigateur de votre appareil.

Dans certains cas, des intérêts légitimes peuvent être invoqués plutôt qu'un consentement. Vous pouvez en savoir plus à ce sujet dans notre Politique de confidentialité et de cookies.